Lid_Strength_Index
-2 -2 -2 -2 -2 -1 -1 -1 -1 -1 -1 -1 -1 -1 -1 -1 1 3 5 2 2 1 2 5 6 7 7 8 8 8 13 15 14 12 11 12 12 11 9 7 6 6 5 4 2
-1 -2 -2 -2 -2 -1 -1 -1 -1 -1 -1 -1 -1 -1 -0 0 2 4 1 -1 -1 0 4 6 8 8 9 9 9 8 13 13 11 10 12 11 12 11 10 8 8 8 5 3 3
-1 -1 -2 -2 -2 -1 -1 -1 -1 -1 -1 -1 -1 -1 -1 1 4 4 -1 -2 -1 1 3 5 6 8 9 10 9 11 11 10 9 8 9 11 12 11 10 10 7 8 6 4 3
-1 -1 -1 -1 -2 -1 -1 -1 -1 -1 -1 -1 -1 -1 -1 1 11 4 -2 -2 -1 2 3 4 7 8 10 10 9 12 11 10 8 8 10 11 11 12 11 9 6 5 4 4 4
-1 -1 -1 -1 -1 -1 -1 -1 -1 -1 -1 -1 -1 -1 1 5 6 1 -1 -1 1 3 4 5 6 9 9 11 9 10 10 10 9 10 9 11 11 12 12 11 8 4 4 4 4
-1 -1 -1 -1 -1 -1 -1 -1 -1 -1 -1 -1 -1 -1 3 8 1 -0 0 2 3 3 5 5 5 6 9 10 10 9 10 10 9 9 10 12 12 12 11 11 6 5 5 5 4
-1 -1 -1 -1 -1 -1 -1 -1 -1 -1 -1 -1 -1 0 4 6 1 -0 1 2 2 3 5 4 4 5 6 10 9 9 10 9 9 9 11 12 13 14 11 11 8 6 5 5 4
-0 -1 -1 -1 -1 -1 -1 -1 -1 -1 -1 -1 -1 1 6 1 0 1 1 2 2 3 4 4 3 5 7 8 9 12 10 14 9 8 9 11 15 12 11 12 12 6 6 5 5
-0 -0 -1 -1 -1 -1 -1 -1 -1 -1 -2 -1 2 4 7 0 3 1 1 3 2 2 3 3 5 7 8 10 12 12 16 14 12 8 10 13 15 12 9 12 12 11 7 6 5
-0 -0 -1 -1 -1 -1 -1 -1 -1 -1 -0 1 2 6 4 6 3 2 2 1 4 4 5 5 8 10 10 12 17 15 15 13 13 10 10 13 15 13 11 11 11 12 11 7 6
-0 -1 -1 -1 -1 -1 -0 1 4 5 4 7 6 7 5 3 2 3 2 3 4 6 10 8 11 13 11 11 10 11 13 13 11 9 11 11 13 13 12 13 13 13 13 10 7
-0 -0 -1 -1 -1 -1 0 4 4 4 8 5 4 5 3 3 7 5 2 7 8 11 9 11 13 10 10 10 11 11 13 14 11 9 11 11 12 11 11 12 11 12 13 12 9
-0 -0 -0 -1 -1 0 2 4 2 3 9 7 6 6 5 4 7 7 4 6 9 11 11 12 11 8 10 11 12 12 13 13 13 12 11 12 13 12 11 12 12 11 12 11 10
-0 -0 -0 -0 2 2 4 2 1 5 15 11 8 6 5 5 9 4 3 6 9 11 10 11 8 10 11 12 11 15 11 11 12 13 17 12 19 13 11 11 13 12 12 12 11
0 -0 -0 0 4 4 2 1 3 8 25 11 8 3 5 7 7 7 4 6 11 11 10 13 11 11 12 12 10 13 10 11 12 14 15 15 18 17 13 14 12 12 12 11 11
-0 -0 -0 2 3 2 1 1 5 19 26 12 8 9 9 8 9 7 7 5 6 11 11 11 9 9 10 9 9 9 11 12 13 14 19 15 16 16 14 14 12 12 12 10 11
0 0 1 3 5 2 2 4 15 24 15 13 11 9 10 10 10 9 10 11 12 15 15 12 11 10 9 12 10 11 13 19 20 20 20 15 16 15 13 14 12 12 12 10 10
-0 0 2 3 2 2 3 11 23 20 17 9 10 10 12 10 10 10 11 13 9 12 14 15 17 12 9 10 13 13 13 18 22 22 20 18 18 15 12 10 11 12 12 11 11
0 2 4 3 1 2 7 15 20 17 12 11 11 13 13 11 11 11 12 12 10 10 14 16 15 11 9 9 9 13 16 11 16 22 21 20 18 15 14 15 14 13 14 14 12
3 5 5 2 1 4 10 16 15 12 9 10 15 12 15 13 13 12 12 10 10 8 8 12 16 11 10 9 9 11 10 16 16 21 22 19 20 17 16 14 13 15 14 14 14
5 8 4 1 2 8 14 15 12 9 9 12 13 14 14 13 12 13 13 11 9 9 8 10 13 14 11 13 14 13 14 14 14 16 19 22 19 16 13 13 13 12 12 14 14
6 12 3 2 10 10 13 13 9 10 9 10 11 12 12 12 12 12 12 11 8 8 12 10 12 16 14 10 9 10 13 13 17 18 19 20 17 16 16 16 15 15 15 15 14
8 8 3 4 13 13 12 13 12 12 11 12 12 11 10 12 14 11 11 8 8 9 10 10 13 17 16 13 12 13 12 12 12 15 17 19 16 16 17 17 16 16 16 15 14
8 11 8 7 10 11 13 14 14 11 11 10 11 10 11 12 11 13 12 9 7 8 7 10 13 15 17 15 13 15 13 12 13 17 16 16 14 16 16 17 15 16 15 16 14
10 11 10 13 12 12 11 12 14 14 12 11 12 11 12 14 13 13 11 10 9 9 9 11 16 13 13 12 12 13 13 13 14 13 15 14 15 13 14 15 15 15 16 15 14
12 11 10 12 11 12 12 12 13 14 13 14 13 11 11 13 12 13 11 11 13 10 11 11 18 14 15 13 12 14 13 12 12 12 12 12 13 12 12 15 15 15 15 15 14
10 9 9 11 13 13 14 13 13 12 11 11 11 11 12 10 9 9 8 9 10 11 13 13 15 16 19 14 15 17 13 13 12 11 12 14 12 11 12 13 13 14 15 15 13